User: anonymous
Location: Durham
(35.9940°N, 78.8990°W)
Time: 22:47:53
(UTC-04:00)
Language:

Iridium 63 - Orbit

View from above orbital plane
View from above orbital plane
View from above satellite
View from above satellite

Ground track
Ground track

The orbit data is extracted from the following two-line orbital elements,

1 25286U 98021B   14110.47447196  .00000047  00000-0  96676-5 0  7822
2 25286 086.4003 346.4046 0001941 101.8008 343.0933 14.34213055839650
Epoch (UTC): 20 April 2014 11:23:14
Eccentricity: 0.0001941
inclination: 86.4003°
perigee height: 776 km
apogee height: 779 km
right ascension of ascending node: 346.4046°
argument of perigee: 101.8008°
revolutions per day: 14.34213055
mean anomaly at epoch: 343.0933°
orbit number at epoch: 83965

The dashed part of the orbit path shows where the satellite is in the earth's shadow,  

DLR